Regional Weather Roundup
Issued by NWS

Home | Current Version | Previous Version | Text Only | Print | Product List | Glossary Off
Versions: 1 2 3 4 5 6 7 8 9 10 11 12 13 14 15 16 17 18 19 20 21 22 23 24 25 26 27 28 29 30 31 32 33 34 35 36 37 38 39 40 41 42 43 44 45 46 47 48 49 50

307
ASUS44 KJAN 231310
RWRMS

MISSISSIPPI HOURLY WEATHER ROUNDUP
NATIONAL WEATHER SERVICE JACKSON MS
800 AM CDT WED JUL 23 2014

NOTE: "FAIR: INDICATES FEW OR NO CLOUDS BELOW 12,000 FEET WITH NO
SIGNIFICANT WEATHER AND/OR OBSTRUCTIONS TO VISIBILITY.

MSZ001>002-007>008-010>013-018>021-025>028-034>036-231400-
NORTHWEST MISSISSIPPI

CITY           SKY/WX    TMP DP  RH WIND       PRES   REMARKS
CLARKSDALE     FAIR      75  75 100 CALM      30.07F
CLEVELAND      FAIR      76  75  99 CALM      30.07R FOG
GREENWOOD      PTSUNNY   73  72  96 CALM      30.08R
GREENVILLE     MOSUNNY   76  74  93 CALM      30.07R
GRENADA        FAIR      70  70 100 CALM      30.08S
OLIVE BRANCH   SUNNY     77  77 100 CALM      30.08R
OXFORD         FAIR      73  72  94 CALM      30.09F
TUNICA         SUNNY     77  72  83 CALM      30.07S
$$

MSZ003>006-009-014>017-022>024-029>033-037>039-231400-
NORTHEAST MISSISSIPPI

CITY           SKY/WX    TMP DP  RH WIND       PRES   REMARKS
BELMONT        FAIR      75  73  92 CALM      30.09S
COLUMBUS AFB   PTSUNNY   75  75 100 CALM      30.09S
CORINTH        FAIR      73  73 100 SE7       30.08S
GOLDN TRIANGLE MOSUNNY   73  70  88 CALM      30.09S
STARKVILLE     FAIR      73  72  94 CALM      30.08S
TUPELO         MOSUNNY   78  73  84 CALM      30.07F
$$

MSZ040-058-231400-
CENTRAL MISSISSIPPI

CITY           SKY/WX    TMP DP  RH WIND       PRES   REMARKS
JACKSON INTL   MOSUNNY   76  71  85 SE3       30.08S
JACKSON HAWKNS PTSUNNY   75  69  81 CALM      30.08S
MERIDIAN KEY   SUNNY     71  70  96 CALM      30.09S FOG
MERIDIAN NAS   PTSUNNY   72  70  94 CALM      30.10R
RAYMOND        LGT RAIN  73  68  83 CALM      30.08S
VICKSBURG      PTSUNNY   75  71  87 SE3       30.08R
$$

MSZ059>079-231400-
SOUTH MISSISSIPPI

CITY           SKY/WX    TMP DP  RH WIND       PRES   REMARKS
BROOKHAVEN     FAIR      72  72 100 CALM      30.10R FOG
COLUMBIA       FOG       68  68 100 CALM      30.08R VSB 1/2
HATTIESBURG    FOG       70  69  97 CALM      30.09R VSB 1/4
MCCOMB         SUNNY     71  68  90 CALM      30.08S
NATCHEZ        MOSUNNY   72  70  94 CALM      30.09R
PINE BELT      CLOUDY    70  66  88 CALM      30.10R VSB 1
$$

MSZ080>082-231400-
COASTAL MISSISSIPPI

CITY           SKY/WX    TMP DP  RH WIND       PRES   REMARKS
BAY ST LOUIS   MOSUNNY  N/A N/A N/A CALM      30.06R
BILOXI         MOSUNNY   75  71  89 NE3       30.06S
PASCAGOULA     SUNNY     74  72  93 CALM      30.07R
GULFPORT       MOSUNNY   78  70  76 NE3       30.06R
$$



USA.gov is the U.S. government's official web portal to all federal, state and local government web resources and services.